• In Czech Republic
  • List of Countries
  • For 7 days
  • Water Temperature
  • Satellite Maps
  • Weather Map
  • Weather Widgets
  • user-avatar
    Login

    Hourly Weather Kipungo

    Today, 18 June, Monday

    Time Temperature Precipitation Wind Pressure Humidity
    00:00 +13°C° 0 mm 0 mps 655 mmHg 32%
    01:00 +12°C° 0 mm 0 mps 654 mmHg 37%
    02:00 +11°C° 0 mm 0 mps 654 mmHg 38%
    03:00 +11°C° 0 mm 0 mps 654 mmHg 40%
    04:00 +10°C° 0 mm 0 mps 654 mmHg 41%
    05:00 +10°C° 0 mm 0 mps 654 mmHg 42%
    06:00 +10°C° 0 mm 0 mps 654 mmHg 42%
    07:00 +10°C° 0 mm 0 mps 654 mmHg 42%
    08:00 +16°C° 0 mm 1 mps 655 mmHg 35%
    09:00 +20°C° 0 mm 2 mps 656 mmHg 28%
    10:00 +25°C° 0 mm 2 mps 657 mmHg 20%
    11:00 +27°C° 0 mm 2 mps 657 mmHg 18%
    12:00 +28°C° 0 mm 2 mps 657 mmHg 15%
    13:00 +30°C° 0 mm 2 mps 657 mmHg 13%
    14:00 +30°C° 0 mm 1 mps 656 mmHg 13%
    15:00 +30°C° 0 mm 1 mps 656 mmHg 13%
    16:00 +29°C° 0 mm 1 mps 655 mmHg 13%
    17:00 +26°C° 0 mm 1 mps 655 mmHg 16%
    18:00 +23°C° 0 mm 1 mps 654 mmHg 20%
    19:00 +20°C° 0 mm 1 mps 654 mmHg 23%
    20:00 +19°C° 0 mm 1 mps 654 mmHg 24%
    21:00 +18°C° 0 mm 1 mps 654 mmHg 26%
    22:00 +16°C° 0 mm 1 mps 655 mmHg 28%
    23:00 +16°C° 0 mm 1 mps 654 mmHg 30%

    Tomorrow, 19 June, Tuesday

    Time Temperature Precipitation Wind Pressure Humidity
    00:00 +15°C° 0 mm 1 mps 654 mmHg 33%
    01:00 +14°C° 0 mm 1 mps 654 mmHg 36%
    02:00 +13°C° 0 mm 1 mps 653 mmHg 38%
    03:00 +13°C° 0 mm 1 mps 653 mmHg 39%
    04:00 +12°C° 0 mm 1 mps 653 mmHg 40%
    05:00 +12°C° 0 mm 1 mps 653 mmHg 41%
    06:00 +11°C° 0 mm 0 mps 653 mmHg 43%
    07:00 +11°C° 0 mm 0 mps 654 mmHg 44%
    08:00 +18°C° 0 mm 1 mps 655 mmHg 36%
    09:00 +22°C° 0 mm 1 mps 656 mmHg 28%
    10:00 +27°C° 0 mm 1 mps 658 mmHg 20%
    11:00 +28°C° 0 mm 1 mps 657 mmHg 17%
    12:00 +29°C° 0 mm 1 mps 657 mmHg 15%
    13:00 +31°C° 0 mm 2 mps 656 mmHg 13%
    14:00 +31°C° 0 mm 1 mps 656 mmHg 13%
    15:00 +30°C° 0 mm 1 mps 655 mmHg 13%
    16:00 +30°C° 0 mm 1 mps 655 mmHg 13%
    17:00 +27°C° 0 mm 1 mps 654 mmHg 17%
    18:00 +24°C° 0 mm 1 mps 654 mmHg 20%
    19:00 +21°C° 0 mm 1 mps 654 mmHg 23%
    20:00 +20°C° 0 mm 1 mps 654 mmHg 24%
    21:00 +19°C° 0 mm 1 mps 654 mmHg 26%
    22:00 +18°C° 0 mm 1 mps 655 mmHg 27%
    23:00 +16°C° 0 mm 1 mps 654 mmHg 29%

    Day after tomorrow, 20 June, Wednesday

    Time Temperature Precipitation Wind Pressure Humidity
    00:00 +15°C° 0 mm 1 mps 654 mmHg 31%
    01:00 +14°C° 0 mm 1 mps 654 mmHg 33%
    02:00 +14°C° 0 mm 1 mps 654 mmHg 34%
    03:00 +13°C° 0 mm 1 mps 653 mmHg 35%
    04:00 +13°C° 0 mm 1 mps 653 mmHg 36%
    05:00 +12°C° 0 mm 0 mps 653 mmHg 37%
    06:00 +12°C° 0 mm 0 mps 654 mmHg 38%
    07:00 +12°C° 0 mm 0 mps 654 mmHg 38%
    08:00 +18°C° 0 mm 1 mps 655 mmHg 32%
    09:00 +22°C° 0 mm 1 mps 656 mmHg 26%
    10:00 +26°C° 0 mm 2 mps 657 mmHg 20%
    11:00 +27°C° 0 mm 2 mps 657 mmHg 18%
    12:00 +29°C° 0 mm 2 mps 657 mmHg 16%
    13:00 +31°C° 0 mm 2 mps 656 mmHg 15%
    14:00 +31°C° 0 mm 2 mps 656 mmHg 14%
    15:00 +30°C° 0 mm 2 mps 656 mmHg 14%
    16:00 +30°C° 0 mm 1 mps 655 mmHg 14%
    17:00 +27°C° 0 mm 1 mps 655 mmHg 18%
    18:00 +24°C° 0 mm 1 mps 655 mmHg 22%
    19:00 +21°C° 0 mm 1 mps 655 mmHg 25%
    20:00 +20°C° 0 mm 1 mps 655 mmHg 27%
    21:00 +19°C° 0 mm 1 mps 655 mmHg 29%
    22:00 +19°C° 0 mm 1 mps 656 mmHg 30%
    23:00 +18°C° 0 mm 1 mps 655 mmHg 33%

    21 June, Thursday

    Time Temperature Precipitation Wind Pressure Humidity
    00:00 +16°C° 0 mm 1 mps 655 mmHg 35%
    01:00 +15°C° 0 mm 1 mps 655 mmHg 37%
    02:00 +15°C° 0 mm 1 mps 654 mmHg 38%
    03:00 +14°C° 0 mm 1 mps 654 mmHg 39%
    04:00 +13°C° 0 mm 1 mps 654 mmHg 41%
    05:00 +13°C° 0 mm 1 mps 654 mmHg 41%
    06:00 +13°C° 0 mm 1 mps 655 mmHg 42%
    07:00 +13°C° 0 mm 1 mps 655 mmHg 42%
    08:00 +18°C° 0 mm 1 mps 656 mmHg 36%
    09:00 +21°C° 0 mm 2 mps 657 mmHg 30%
    10:00 +26°C° 0 mm 3 mps 658 mmHg 23%
    11:00 +28°C° 0 mm 3 mps 658 mmHg 21%
    12:00 +29°C° 0 mm 3 mps 658 mmHg 19%
    13:00 +31°C° 0 mm 3 mps 657 mmHg 17%
    14:00 +31°C° 0 mm 2 mps 657 mmHg 17%
    15:00 +31°C° 0 mm 2 mps 656 mmHg 17%
    16:00 +31°C° 0 mm 2 mps 656 mmHg 16%
    17:00 +28°C° 0 mm 1 mps 656 mmHg 20%
    18:00 +25°C° 0 mm 1 mps 656 mmHg 25%
    19:00 +22°C° 0 mm 1 mps 655 mmHg 29%
    20:00 +21°C° 0 mm 1 mps 656 mmHg 31%
    21:00 +20°C° 0 mm 1 mps 656 mmHg 32%
    22:00 +19°C° 0 mm 1 mps 656 mmHg 34%
    23:00 +18°C° 0 mm 1 mps 656 mmHg 35%

    22 June, Friday

    Time Temperature Precipitation Wind Pressure Humidity
    00:00 +16°C° 0 mm 1 mps 655 mmHg 37%
    01:00 +15°C° 0 mm 1 mps 655 mmHg 38%
    02:00 +15°C° 0 mm 1 mps 655 mmHg 39%
    03:00 +14°C° 0 mm 1 mps 654 mmHg 41%
    04:00 +13°C° 0 mm 1 mps 654 mmHg 42%
    05:00 +13°C° 0 mm 1 mps 655 mmHg 42%
    06:00 +14°C° 0 mm 1 mps 655 mmHg 42%
    07:00 +14°C° 0 mm 1 mps 655 mmHg 42%
    08:00 +17°C° 0 mm 2 mps 656 mmHg 36%
    09:00 +21°C° 0 mm 3 mps 657 mmHg 31%
    10:00 +26°C° 0 mm 4 mps 658 mmHg 25%
    11:00 +28°C° 0 mm 3 mps 658 mmHg 22%
    12:00 +29°C° 0 mm 3 mps 657 mmHg 20%
    13:00 +31°C° 0 mm 2 mps 657 mmHg 17%
    14:00 +31°C° 0 mm 2 mps 656 mmHg 17%
    15:00 +31°C° 0 mm 2 mps 656 mmHg 17%
    16:00 +31°C° 0 mm 1 mps 656 mmHg 16%
    17:00 +28°C° 0 mm 1 mps 655 mmHg 21%
    18:00 +24°C° 0 mm 1 mps 655 mmHg 25%
    19:00 +21°C° 0 mm 1 mps 655 mmHg 29%
    20:00 +21°C° 0 mm 1 mps 655 mmHg 31%
    21:00 +20°C° 0 mm 1 mps 656 mmHg 32%
    22:00 +19°C° 0 mm 1 mps 656 mmHg 34%
    23:00 +18°C° 0 mm 1 mps 655 mmHg 35%

    23 June, Saturday

    Time Temperature Precipitation Wind Pressure Humidity
    00:00 +16°C° 0 mm 1 mps 655 mmHg 37%
    01:00 +16°C° 0 mm 1 mps 655 mmHg 39%
    02:00 +15°C° 0 mm 1 mps 655 mmHg 40%
    03:00 +15°C° 0 mm 1 mps 654 mmHg 41%
    04:00 +14°C° 0 mm 1 mps 654 mmHg 43%
    05:00 +14°C° 0 mm 1 mps 654 mmHg 44%
    06:00 +14°C° 0 mm 1 mps 655 mmHg 46%
    07:00 +14°C° 0 mm 1 mps 655 mmHg 47%
    08:00 +17°C° 0 mm 2 mps 656 mmHg 42%
    09:00 +21°C° 0 mm 3 mps 657 mmHg 36%
    10:00 +26°C° 0 mm 4 mps 658 mmHg 30%
    11:00 +27°C° 0 mm 3 mps 657 mmHg 27%
    12:00 +29°C° 0 mm 3 mps 657 mmHg 24%
    13:00 +31°C° 0 mm 2 mps 657 mmHg 20%
    14:00 +30°C° 0 mm 2 mps 656 mmHg 20%
    15:00 +30°C° 0 mm 2 mps 656 mmHg 20%
    16:00 +30°C° 0 mm 1 mps 655 mmHg 19%
    17:00 +27°C° 0 mm 1 mps 655 mmHg 23%
    18:00 +25°C° 0 mm 1 mps 655 mmHg 27%
    19:00 +22°C° 0 mm 1 mps 655 mmHg 31%
    20:00 +21°C° 0 mm 1 mps 655 mmHg 33%
    21:00 +20°C° 0 mm 1 mps 655 mmHg 36%
    22:00 +19°C° 0 mm 1 mps 655 mmHg 38%
    23:00 +19°C° 0 mm 1 mps 654 mmHg 40%
    Show more